N87LA MUHA-KFLL

Flight info

Callsign N87LA
Flight time N/A
Altitude 29000
Route EPMAR4A MAXIM BHHIA3
Aircraft TBM8/L-SDFGRWY/S

Departure

Time 2026-05-03 22:02
Airport José Martí International Airport (MUHA)

Arrival

Time N/A
Airport Fort Lauderdale Hollywood International Airport (KFLL)
Time Latitude Longitude Altitude Speed Heading
2026-05-03 21:29 22.98379 -82.42135 215 ft 0 kts 324°
2026-05-03 21:54 22.98385 -82.42136 211 ft 0 kts 17°
2026-05-03 21:54 22.98387 -82.42122 216 ft 6 kts 130°
2026-05-03 21:54 22.98337 -82.42112 212 ft 9 kts 214°
2026-05-03 21:55 22.98296 -82.42162 216 ft 9 kts 235°
2026-05-03 21:55 22.98262 -82.42213 211 ft 7 kts 231°
2026-05-03 21:55 22.98230 -82.42261 215 ft 9 kts 235°
2026-05-03 21:55 22.98185 -82.42329 214 ft 11 kts 233°
2026-05-03 21:56 22.98141 -82.42392 215 ft 10 kts 234°
2026-05-03 21:56 22.98096 -82.42461 214 ft 11 kts 234°
2026-05-03 21:56 22.98061 -82.42513 211 ft 7 kts 234°
2026-05-03 21:56 22.98034 -82.42553 212 ft 6 kts 230°
2026-05-03 21:57 22.98005 -82.42567 211 ft 4 kts 185°
2026-05-03 21:57 22.97980 -82.42566 213 ft 4 kts 162°
2026-05-03 21:57 22.97955 -82.42548 211 ft 4 kts 146°
2026-05-03 21:57 22.97945 -82.42540 211 ft 0 kts 143°
2026-05-03 21:58 22.97933 -82.42530 211 ft 7 kts 142°
2026-05-03 21:58 22.97897 -82.42499 215 ft 5 kts 141°
2026-05-03 21:58 22.97885 -82.42472 211 ft 4 kts 89°
2026-05-03 21:58 22.97899 -82.42441 214 ft 3 kts 55°
2026-05-03 21:59 22.97901 -82.42438 213 ft 0 kts 55°
2026-05-03 22:01 22.97953 -82.42360 216 ft 36 kts 54°
2026-05-03 22:01 22.98199 -82.41984 215 ft 85 kts 54°
2026-05-03 22:02 22.98583 -82.41368 401 ft 103 kts 54°
2026-05-03 22:02 22.99002 -82.40688 653 ft 118 kts 59°
2026-05-03 22:02 22.99421 -82.39875 939 ft 130 kts 60°
2026-05-03 22:02 22.99841 -82.39032 1468 ft 125 kts 56°
2026-05-03 22:03 23.00375 -82.38249 1860 ft 130 kts 46°
2026-05-03 22:03 23.01007 -82.37520 2237 ft 135 kts 47°
2026-05-03 22:03 23.01621 -82.36745 2662 ft 136 kts 47°
2026-05-03 22:03 23.02202 -82.35932 3091 ft 137 kts 56°
2026-05-03 22:04 23.02765 -82.35068 3437 ft 143 kts 55°
2026-05-03 22:04 23.03348 -82.34194 3841 ft 144 kts 55°
2026-05-03 22:04 23.03937 -82.33307 4288 ft 145 kts 55°
2026-05-03 22:04 23.04519 -82.32425 4762 ft 144 kts 55°
2026-05-03 22:05 23.05108 -82.31537 5193 ft 145 kts 54°
2026-05-03 22:05 23.05704 -82.30640 5609 ft 147 kts 55°
2026-05-03 22:05 23.06300 -82.29735 6062 ft 147 kts 54°
2026-05-03 22:05 23.06902 -82.28830 6490 ft 149 kts 54°
2026-05-03 22:06 23.07501 -82.27926 6864 ft 150 kts 54°
2026-05-03 22:06 23.08112 -82.27009 7256 ft 150 kts 54°
2026-05-03 22:06 23.08727 -82.26081 7660 ft 152 kts 54°
2026-05-03 22:06 23.09339 -82.25153 8077 ft 151 kts 54°
2026-05-03 22:07 23.09958 -82.24220 8476 ft 153 kts 54°
2026-05-03 22:07 23.10590 -82.23293 8878 ft 153 kts 50°
2026-05-03 22:07 23.11228 -82.22360 9268 ft 154 kts 52°
2026-05-03 22:07 23.11839 -82.21405 9672 ft 155 kts 53°
2026-05-03 22:08 23.12462 -82.20448 10047 ft 156 kts 52°
2026-05-03 22:08 23.13094 -82.19491 10406 ft 156 kts 52°
2026-05-03 22:08 23.13739 -82.18538 10763 ft 157 kts 47°
2026-05-03 22:08 23.14612 -82.17907 11107 ft 153 kts 14°
2026-05-03 22:09 23.15642 -82.17776 11456 ft 147 kts 347°
2026-05-03 22:09 23.16600 -82.18102 11811 ft 145 kts 333°
2026-05-03 22:09 23.17536 -82.18512 12157 ft 143 kts 321°
2026-05-03 22:10 23.18586 -82.20241 12849 ft 139 kts 295°
2026-05-03 22:10 23.19064 -82.21155 13202 ft 139 kts 295°
2026-05-03 22:10 23.19543 -82.22075 13561 ft 140 kts 295°
2026-05-03 22:10 23.20026 -82.22997 13897 ft 141 kts 295°
2026-05-03 22:11 23.20513 -82.23929 14211 ft 142 kts 295°
2026-05-03 22:11 23.20999 -82.24861 14533 ft 142 kts 295°
2026-05-03 22:11 23.21481 -82.25781 14831 ft 142 kts 295°
2026-05-03 22:11 23.21973 -82.26719 15141 ft 143 kts 295°
2026-05-03 22:12 23.22467 -82.27656 15451 ft 143 kts 295°
2026-05-03 22:12 23.22962 -82.28595 15763 ft 144 kts 295°
2026-05-03 22:12 23.23462 -82.29540 16063 ft 144 kts 295°
2026-05-03 22:12 23.23965 -82.30487 16363 ft 145 kts 295°
2026-05-03 22:13 23.24471 -82.31430 16698 ft 144 kts 295°
2026-05-03 22:13 23.24975 -82.32354 16994 ft 144 kts 295°
2026-05-03 22:13 23.25497 -82.33305 17299 ft 145 kts 295°
2026-05-03 22:13 23.26009 -82.34236 17593 ft 146 kts 295°
2026-05-03 22:14 23.26530 -82.35182 17892 ft 146 kts 295°
2026-05-03 22:14 23.27054 -82.36130 18188 ft 147 kts 295°
2026-05-03 22:14 23.27582 -82.37080 18454 ft 147 kts 295°
2026-05-03 22:14 23.28113 -82.38033 18708 ft 147 kts 295°
2026-05-03 22:15 23.28648 -82.38986 18961 ft 148 kts 295°
2026-05-03 22:15 23.29186 -82.39939 19221 ft 148 kts 295°
2026-05-03 22:15 23.29869 -82.40775 19480 ft 158 kts 325°
2026-05-03 22:15 23.31010 -82.40897 19718 ft 174 kts 356°
2026-05-03 22:16 23.32185 -82.40933 19942 ft 169 kts 342°
2026-05-03 22:16 23.33345 -82.41121 20183 ft 169 kts 341°
2026-05-03 22:16 23.34512 -82.41309 20428 ft 170 kts 341°
2026-05-03 22:16 23.35683 -82.41496 20671 ft 171 kts 341°
2026-05-03 22:17 23.36863 -82.41685 20917 ft 172 kts 341°
2026-05-03 22:17 23.38044 -82.41874 21158 ft 172 kts 341°
2026-05-03 22:17 23.39232 -82.42066 21394 ft 173 kts 341°
2026-05-03 22:17 23.40424 -82.42256 21623 ft 173 kts 341°
2026-05-03 22:18 23.41621 -82.42449 21867 ft 174 kts 341°
2026-05-03 22:18 23.42822 -82.42642 22099 ft 175 kts 340°
2026-05-03 22:18 23.44012 -82.42833 22325 ft 176 kts 340°
2026-05-03 22:18 23.45238 -82.43031 22560 ft 176 kts 340°
2026-05-03 22:19 23.46440 -82.43224 22782 ft 177 kts 340°
2026-05-03 22:19 23.47657 -82.43420 23008 ft 178 kts 340°
2026-05-03 22:19 23.48881 -82.43617 23232 ft 178 kts 340°
2026-05-03 22:19 23.50111 -82.43815 23452 ft 179 kts 339°
2026-05-03 22:20 23.51344 -82.44015 23644 ft 180 kts 340°
2026-05-03 22:20 23.52583 -82.44213 23832 ft 180 kts 340°
2026-05-03 22:20 23.53822 -82.44411 24021 ft 180 kts 339°
2026-05-03 22:20 23.55062 -82.44612 24201 ft 181 kts 339°
2026-05-03 22:21 23.56306 -82.44813 24384 ft 181 kts 339°
2026-05-03 22:21 23.57541 -82.45006 24572 ft 182 kts 337°
2026-05-03 22:21 23.58792 -82.45213 24740 ft 182 kts 337°
2026-05-03 22:21 23.60051 -82.45418 24922 ft 183 kts 337°
2026-05-03 22:22 23.61328 -82.45626 25000 ft 191 kts 337°
2026-05-03 22:22 23.62684 -82.45845 25012 ft 203 kts 339°
2026-05-03 22:22 23.64127 -82.46074 25015 ft 216 kts 339°
2026-05-03 22:22 23.65654 -82.46319 25016 ft 228 kts 340°
2026-05-03 22:23 23.67258 -82.46574 25016 ft 239 kts 341°
2026-05-03 22:23 23.68940 -82.46843 25015 ft 249 kts 341°
2026-05-03 22:23 23.70668 -82.47118 25012 ft 259 kts 342°
2026-05-03 22:23 23.72480 -82.47409 25011 ft 267 kts 342°
2026-05-03 22:24 23.74345 -82.47707 25011 ft 275 kts 342°
2026-05-03 22:24 23.76261 -82.48014 25010 ft 281 kts 342°
2026-05-03 22:24 23.78213 -82.48329 25011 ft 287 kts 343°
2026-05-03 22:24 23.80202 -82.48651 25012 ft 291 kts 343°
2026-05-03 22:25 23.82225 -82.48976 25009 ft 295 kts 343°
2026-05-03 22:25 23.84269 -82.49304 25010 ft 299 kts 343°
2026-05-03 22:25 23.86334 -82.49638 25010 ft 301 kts 343°
2026-05-03 22:25 23.87709 -82.49860 25010 ft 303 kts 343°
2026-05-03 22:26 23.89805 -82.50199 25010 ft 306 kts 342°
2026-05-03 22:26 23.91912 -82.50540 25010 ft 308 kts 343°
2026-05-03 22:26 23.94729 -82.50995 25008 ft 310 kts 343°
2026-05-03 22:26 23.96873 -82.51305 25014 ft 315 kts 348°
2026-05-03 22:27 23.99099 -82.51098 25016 ft 330 kts
2026-05-03 22:27 24.01295 -82.50230 25017 ft 343 kts 21°
2026-05-03 22:27 24.02636 -82.49283 25017 ft 350 kts 33°
2026-05-03 22:27 24.05094 -82.46921 25012 ft 353 kts 38°
2026-05-03 22:28 24.06310 -82.45740 25011 ft 353 kts 37°
2026-05-03 22:28 24.08149 -82.43963 25009 ft 353 kts 37°
2026-05-03 22:28 24.09995 -82.42179 25007 ft 354 kts 37°
2026-05-03 22:28 24.11838 -82.40394 25007 ft 354 kts 37°
2026-05-03 22:29 24.13679 -82.38608 24994 ft 354 kts 38°
2026-05-03 22:29 24.15523 -82.36821 24994 ft 354 kts 38°
2026-05-03 22:29 24.17368 -82.35034 24994 ft 354 kts 38°
2026-05-03 22:29 24.19209 -82.33250 24996 ft 354 kts 38°
2026-05-03 22:30 24.21053 -82.31462 25001 ft 354 kts 37°
2026-05-03 22:30 24.22902 -82.29668 25000 ft 355 kts 37°
2026-05-03 22:30 24.24748 -82.27876 24996 ft 355 kts 37°
2026-05-03 22:30 24.26571 -82.26104 24993 ft 355 kts 37°
2026-05-03 22:31 24.28423 -82.24306 24995 ft 355 kts 37°
2026-05-03 22:31 24.30272 -82.22509 24992 ft 356 kts 37°
2026-05-03 22:31 24.32122 -82.20708 24991 ft 356 kts 37°
2026-05-03 22:31 24.33972 -82.18910 24993 ft 356 kts 37°
2026-05-03 22:32 24.35825 -82.17107 24991 ft 356 kts 37°
2026-05-03 22:32 24.37676 -82.15304 24992 ft 356 kts 37°
2026-05-03 22:32 24.39525 -82.13505 24992 ft 356 kts 37°
2026-05-03 22:32 24.41376 -82.11702 24991 ft 356 kts 37°
2026-05-03 22:33 24.43225 -82.09899 24996 ft 355 kts 38°
2026-05-03 22:33 24.45072 -82.08097 24992 ft 356 kts 38°
2026-05-03 22:33 24.46920 -82.06294 24992 ft 356 kts 38°
2026-05-03 22:33 24.48771 -82.04489 24990 ft 356 kts 38°
2026-05-03 22:34 24.50617 -82.02687 24992 ft 356 kts 38°
2026-05-03 22:34 24.52462 -82.00884 24992 ft 356 kts 38°
2026-05-03 22:34 24.54288 -81.99100 24990 ft 356 kts 38°
2026-05-03 22:34 24.56136 -81.97293 24990 ft 356 kts 38°
2026-05-03 22:35 24.57976 -81.95494 24993 ft 356 kts 38°
2026-05-03 22:35 24.59828 -81.93683 24993 ft 356 kts 38°
2026-05-03 22:35 24.61679 -81.91871 25001 ft 356 kts 38°
2026-05-03 22:35 24.63524 -81.90064 25000 ft 356 kts 38°
2026-05-03 22:36 24.65375 -81.88251 25002 ft 356 kts 37°
2026-05-03 22:36 24.67232 -81.86432 25002 ft 358 kts 38°
2026-05-03 22:36 24.69095 -81.84603 24999 ft 359 kts 38°
2026-05-03 22:36 24.70954 -81.82778 25000 ft 358 kts 38°
2026-05-03 22:37 24.72817 -81.80954 25000 ft 358 kts 38°
2026-05-03 22:37 24.74669 -81.79136 25000 ft 357 kts 38°
2026-05-03 22:37 24.76523 -81.77315 25001 ft 357 kts 38°
2026-05-03 22:37 24.78375 -81.75496 25015 ft 357 kts 38°
2026-05-03 22:38 24.80232 -81.73674 25008 ft 358 kts 37°
2026-05-03 22:38 24.82089 -81.71847 25005 ft 358 kts 38°
2026-05-03 22:38 24.83947 -81.70018 25003 ft 359 kts 38°
2026-05-03 22:38 24.85786 -81.68208 25005 ft 360 kts 38°
2026-05-03 22:39 24.87658 -81.66365 24997 ft 361 kts 38°
2026-05-03 22:39 24.89528 -81.64527 24993 ft 360 kts 38°
2026-05-03 22:39 24.91390 -81.62689 24991 ft 360 kts 38°
2026-05-03 22:39 24.93254 -81.60847 24990 ft 359 kts 38°
2026-05-03 22:40 24.95115 -81.59015 24993 ft 359 kts 38°
2026-05-03 22:40 24.96975 -81.57183 24993 ft 359 kts 38°
2026-05-03 22:40 24.98832 -81.55349 24993 ft 359 kts 38°
2026-05-03 22:40 25.00692 -81.53511 24992 ft 358 kts 38°
2026-05-03 22:41 25.02546 -81.51680 24999 ft 358 kts 38°
2026-05-03 22:41 25.04405 -81.49844 24996 ft 358 kts 38°
2026-05-03 22:41 25.06255 -81.48014 24997 ft 358 kts 38°
2026-05-03 22:41 25.08111 -81.46179 25000 ft 358 kts 38°
2026-05-03 22:42 25.09963 -81.44347 25012 ft 358 kts 38°
2026-05-03 22:42 25.11823 -81.42507 25005 ft 359 kts 38°
2026-05-03 22:42 25.13659 -81.40689 25000 ft 360 kts 38°
2026-05-03 22:42 25.15467 -81.38775 25005 ft 362 kts 43°
2026-05-03 22:43 25.17186 -81.36741 25005 ft 363 kts 44°
2026-05-03 22:43 25.18888 -81.34673 24883 ft 367 kts 45°
2026-05-03 22:43 25.20622 -81.32546 24546 ft 378 kts 45°
2026-05-03 22:43 25.22098 -81.30108 24249 ft 389 kts 67°
2026-05-03 22:44 25.22677 -81.27199 23964 ft 390 kts 92°
2026-05-03 22:44 25.22246 -81.24292 23686 ft 380 kts 116°
2026-05-03 22:44 25.20911 -81.21862 23377 ft 364 kts 141°
2026-05-03 22:44 25.18931 -81.20277 23047 ft 344 kts 165°
2026-05-03 22:45 25.16680 -81.19755 22726 ft 324 kts 189°
2026-05-03 22:45 25.14561 -81.20306 22409 ft 308 kts 211°
2026-05-03 22:45 25.12705 -81.21455 22055 ft 305 kts 218°
2026-05-03 22:45 25.10946 -81.22762 21684 ft 305 kts 220°
2026-05-03 22:46 25.09237 -81.24106 21318 ft 306 kts 221°
2026-05-03 22:46 25.07571 -81.25545 20971 ft 302 kts 230°
2026-05-03 22:46 25.06545 -81.27520 20650 ft 298 kts 255°
2026-05-03 22:46 25.06503 -81.29796 20363 ft 303 kts 280°
2026-05-03 22:47 25.07462 -81.31884 20068 ft 314 kts 305°
2026-05-03 22:47 25.09247 -81.33337 19790 ft 330 kts 330°
2026-05-03 22:47 25.11536 -81.33831 19499 ft 347 kts 355°
2026-05-03 22:47 25.13923 -81.33225 19207 ft 361 kts 20°
2026-05-03 22:48 25.16033 -81.31688 18903 ft 366 kts 36°
2026-05-03 22:48 25.17965 -81.29852 18574 ft 367 kts 39°
2026-05-03 22:48 25.19826 -81.27984 18236 ft 366 kts 40°
2026-05-03 22:48 25.21662 -81.26045 17856 ft 366 kts 47°
2026-05-03 22:49 25.22918 -81.23611 17525 ft 367 kts 73°
2026-05-03 22:49 25.23176 -81.20858 17199 ft 357 kts 99°
2026-05-03 22:49 25.22422 -81.18334 16874 ft 340 kts 126°
2026-05-03 22:49 25.20878 -81.16468 16553 ft 321 kts 152°
2026-05-03 22:50 25.18898 -81.15576 16238 ft 299 kts 178°
2026-05-03 22:50 25.16923 -81.15766 15925 ft 278 kts 205°
2026-05-03 22:50 25.15375 -81.16900 15616 ft 264 kts 230°
2026-05-03 22:50 25.14240 -81.18463 15273 ft 260 kts 237°
2026-05-03 22:51 25.13201 -81.20089 14915 ft 258 kts 238°
2026-05-03 22:51 25.12188 -81.21722 14571 ft 257 kts 239°
2026-05-03 22:51 25.11184 -81.23358 14222 ft 257 kts 239°
2026-05-03 22:51 25.10188 -81.24979 14012 ft 253 kts 239°
2026-05-03 22:52 25.09216 -81.26536 14007 ft 247 kts 238°
2026-05-03 22:52 25.08249 -81.28080 14002 ft 243 kts 239°
2026-05-03 22:52 25.07404 -81.29672 14011 ft 238 kts 253°
2026-05-03 22:52 25.07378 -81.31465 14023 ft 239 kts 284°
2026-05-03 22:53 25.08294 -81.33005 14027 ft 249 kts 315°
2026-05-03 22:53 25.09901 -81.33798 14024 ft 263 kts 346°
2026-05-03 22:53 25.11757 -81.33703 14016 ft 271 kts
2026-05-03 22:53 25.13609 -81.33266 14016 ft 274 kts 11°
2026-05-03 22:54 25.15424 -81.32598 14016 ft 275 kts 15°
2026-05-03 22:54 25.17222 -81.31878 14016 ft 275 kts 15°
2026-05-03 22:54 25.19023 -81.31145 14014 ft 275 kts 16°
2026-05-03 22:54 25.20795 -81.30421 14011 ft 275 kts 16°
2026-05-03 22:55 25.22580 -81.29668 14005 ft 275 kts 18°
2026-05-03 22:55 25.24360 -81.28876 14006 ft 277 kts 23°
2026-05-03 22:55 25.25798 -81.27452 14030 ft 285 kts 56°
2026-05-03 22:55 25.26435 -81.25379 14015 ft 289 kts 84°
2026-05-03 22:56 25.26228 -81.23205 14017 ft 285 kts 112°
2026-05-03 22:56 25.25204 -81.21393 14017 ft 275 kts 141°
2026-05-03 22:56 25.23611 -81.20355 14018 ft 262 kts 170°
2026-05-03 22:56 25.21859 -81.20307 14017 ft 248 kts 200°
2026-05-03 22:57 25.20411 -81.21211 14017 ft 237 kts 229°
2026-05-03 22:57 25.19418 -81.22649 14015 ft 235 kts 239°
2026-05-03 22:57 25.18549 -81.24150 14017 ft 235 kts 240°
2026-05-03 22:57 25.17702 -81.25698 14015 ft 235 kts 242°
2026-05-03 22:58 25.16892 -81.27263 14016 ft 235 kts 243°
2026-05-03 22:58 25.16085 -81.28839 14014 ft 236 kts 243°
2026-05-03 22:58 25.15283 -81.30411 14014 ft 236 kts 243°
2026-05-03 22:58 25.14480 -81.31988 14014 ft 235 kts 243°
2026-05-03 22:59 25.14055 -81.33697 14016 ft 234 kts 270°
2026-05-03 22:59 25.14551 -81.35405 14015 ft 241 kts 300°
2026-05-03 22:59 25.15849 -81.36609 14016 ft 254 kts 329°
2026-05-03 22:59 25.17624 -81.36945 14017 ft 268 kts 359°
2026-05-03 23:00 25.19395 -81.36285 14015 ft 281 kts 27°
2026-05-03 23:00 25.20840 -81.34770 14021 ft 286 kts 48°
2026-05-03 23:00 25.22114 -81.33079 14018 ft 287 kts 47°
2026-05-03 23:00 25.23388 -81.31429 14019 ft 287 kts 46°
2026-05-03 23:01 25.24628 -81.29702 14014 ft 289 kts 56°
2026-05-03 23:01 25.25484 -81.27690 14013 ft 290 kts 68°
2026-05-03 23:01 25.26251 -81.25626 14013 ft 290 kts 64°
2026-05-03 23:01 25.27166 -81.23644 14011 ft 290 kts 59°
2026-05-03 23:02 25.28150 -81.21699 14011 ft 290 kts 60°
2026-05-03 23:02 25.29087 -81.19728 13993 ft 290 kts 62°
2026-05-03 23:02 25.30019 -81.17697 13631 ft 300 kts 62°
2026-05-03 23:02 25.30980 -81.15628 13251 ft 305 kts 61°
2026-05-03 23:03 25.31954 -81.13576 12879 ft 306 kts 61°
2026-05-03 23:03 25.32939 -81.11490 12507 ft 306 kts 61°
2026-05-03 23:03 25.33922 -81.09390 11997 ft 310 kts 62°
2026-05-03 23:03 25.34890 -81.07290 11395 ft 303 kts 62°
2026-05-03 23:04 25.35826 -81.05273 10799 ft 286 kts 61°
2026-05-03 23:04 25.36736 -81.03378 10221 ft 274 kts 60°
2026-05-03 23:04 25.37617 -81.01546 9619 ft 267 kts 62°
2026-05-03 23:04 25.38460 -80.99741 8980 ft 262 kts 62°
2026-05-03 23:05 25.39283 -80.97968 8373 ft 257 kts 62°
2026-05-03 23:05 25.40088 -80.96251 7773 ft 253 kts 62°
2026-05-03 23:05 25.40893 -80.94536 7177 ft 249 kts 62°
2026-05-03 23:05 25.41685 -80.92845 6594 ft 246 kts 62°
2026-05-03 23:06 25.42463 -80.91180 5987 ft 242 kts 63°
2026-05-03 23:06 25.43232 -80.89537 5379 ft 238 kts 63°
2026-05-03 23:06 25.43984 -80.87928 4784 ft 234 kts 62°
2026-05-03 23:06 25.44726 -80.86342 4167 ft 230 kts 62°
2026-05-03 23:07 25.45456 -80.84782 3559 ft 226 kts 62°
2026-05-03 23:07 25.46173 -80.83244 2963 ft 224 kts 63°
2026-05-03 23:07 25.47122 -80.81947 2515 ft 210 kts 33°
2026-05-03 23:07 25.48395 -80.81457 2502 ft 188 kts
2026-05-03 23:08 25.49643 -80.81219 2504 ft 178 kts
2026-05-03 23:08 25.50839 -80.80973 2505 ft 173 kts
2026-05-03 23:08 25.52065 -80.80730 2504 ft 184 kts
2026-05-03 23:08 25.53346 -80.80475 2508 ft 189 kts
2026-05-03 23:09 25.54652 -80.80209 2508 ft 192 kts 10°
2026-05-03 23:09 25.55977 -80.79942 2515 ft 194 kts
2026-05-03 23:09 25.57294 -80.79670 2516 ft 196 kts
2026-05-03 23:09 25.58653 -80.79382 2514 ft 196 kts
2026-05-03 23:10 25.59973 -80.79112 2520 ft 195 kts
2026-05-03 23:10 25.61307 -80.78847 2520 ft 195 kts
2026-05-03 23:10 25.62638 -80.78575 2522 ft 195 kts
2026-05-03 23:10 25.63970 -80.78301 2523 ft 194 kts
2026-05-03 23:11 25.65232 -80.77854 2513 ft 188 kts 34°
2026-05-03 23:11 25.65938 -80.76711 2513 ft 180 kts 78°
2026-05-03 23:11 25.65934 -80.75352 2519 ft 175 kts 96°
2026-05-03 23:11 25.65824 -80.74018 2519 ft 173 kts 97°
2026-05-03 23:12 25.65430 -80.72775 2510 ft 171 kts 116°
2026-05-03 23:12 25.64901 -80.71576 2363 ft 180 kts 117°
2026-05-03 23:12 25.64333 -80.70294 2005 ft 190 kts 117°
2026-05-03 23:12 25.63740 -80.68974 1645 ft 192 kts 117°
2026-05-03 23:13 25.63205 -80.67665 1505 ft 183 kts 114°
2026-05-03 23:13 25.62713 -80.66408 1496 ft 174 kts 114°
2026-05-03 23:13 25.62240 -80.65194 1497 ft 169 kts 114°
2026-05-03 23:13 25.61774 -80.64004 1490 ft 167 kts 114°
2026-05-03 23:14 25.61312 -80.62826 1492 ft 166 kts 114°
2026-05-03 23:14 25.60853 -80.61659 1492 ft 165 kts 114°
2026-05-03 23:14 25.60379 -80.60501 1491 ft 165 kts 116°
2026-05-03 23:14 25.59803 -80.59410 1491 ft 165 kts 123°
2026-05-03 23:15 25.59188 -80.58339 1494 ft 165 kts 123°
2026-05-03 23:15 25.58546 -80.57288 1492 ft 165 kts 133°
2026-05-03 23:15 25.57685 -80.56479 1494 ft 165 kts 142°
2026-05-03 23:15 25.56777 -80.55707 1495 ft 165 kts 146°
2026-05-03 23:16 25.55806 -80.55041 1495 ft 165 kts 149°
2026-05-03 23:16 25.54783 -80.54486 1540 ft 161 kts 165°
2026-05-03 23:16 25.53734 -80.54561 1585 ft 150 kts 202°
2026-05-03 23:16 25.52897 -80.55209 1439 ft 145 kts 234°
2026-05-03 23:17 25.52647 -80.56223 1352 ft 132 kts 270°
2026-05-03 23:17 25.52662 -80.57209 1348 ft 130 kts 269°
2026-05-03 23:17 25.52519 -80.58218 1387 ft 140 kts 239°
2026-05-03 23:17 25.51650 -80.58702 1290 ft 148 kts 179°
2026-05-03 23:18 25.50781 -80.58371 1174 ft 127 kts 137°
2026-05-03 23:18 25.50453 -80.57601 827 ft 103 kts 105°
2026-05-03 23:18 25.50316 -80.56865 399 ft 93 kts 99°
2026-05-03 23:18 25.50286 -80.56198 198 ft 83 kts 92°
2026-05-03 23:19 25.50275 -80.55589 43 ft 77 kts 92°
2026-05-03 23:19 25.50276 -80.55063 12 ft 52 kts 90°
2026-05-03 23:19 25.50278 -80.54841 13 ft 15 kts 88°
2026-05-03 23:19 25.50278 -80.54685 14 ft 23 kts 90°
2026-05-03 23:20 25.50265 -80.54608 13 ft 4 kts 159°
2026-05-03 23:20 25.50238 -80.54607 13 ft 5 kts 181°
2026-05-03 23:20 25.50205 -80.54602 13 ft 4 kts 151°
2026-05-03 23:20 25.50163 -80.54596 13 ft 8 kts 163°
2026-05-03 23:21 25.50143 -80.54594 13 ft 1 kts 253°
2026-05-03 23:21 25.50143 -80.54597 13 ft 0 kts 277°
2026-05-03 23:21 25.50143 -80.54598 13 ft 0 kts 277°
2026-05-03 23:22 25.50143 -80.54597 13 ft 0 kts 277°